SCP
-0 -0 -0 0 0 0 0 0 0 0 -0 0 0 0 0 0 0 0 0 0 0 0 0 0 0 0 0 0 0 0 0 0 0 0 0 0 0 0 0 0 0 0 0 0
0 0 0 0 0 0 0 0 0 -0 -0 -0 0 0 0 0 0 0 0 0 0 0 0 0 0 0 0 0 0 0 0 0 0 0 0 0 0 0 0 0 0 0 0 0
0 0 0 0 0 0 0 0 0 0 0 0 0 0 0 0 0 0 0 0 0 0 0 0 0 0 0 0 0 0 0 0 0 0 0 0 0 0 0 0 0 0 0 0
0 0 0 0 0 -0 0 0 0 0 -0 0 0 0 0 0 0 0 0 0 0 0 0 0 0 0 0 0 0 0 0 0 0 0 0 0 0 0 0 0 0 0 0 0
0 0 0 0 0 -0 0 0 0 0 0 0 0 0 0 0 0 0 0 0 0 0 0 0 0 0 0 0 0 0 0 0 0 0 0 0 0 0 0 0 0 0 0 0
-0 -0 -0 -0 -0 0 0 0 0 0 0 0 0 0 0 0 0 0 0 0 0 0 0 0 0 0 0 0 0 0 0 0 0 0 0 0 0 0 0 0 0 0 0 0
-0 -0 0 0 0 0 0 0 -0 -0 -0 0 0 0 -0 0 0 0 0 0 0 0 0 0 0 0 0 0 0 0 0 0 0 0 0 0 0 0 0 0 0 0 0 0
-0 -0 0 0 0 0 0 0 -0 -0 -0 0 0 0 0 0 0 0 0 0 0 0 0 0 0 0 0 0 0 0 0 0 0 0 0 0 0 0 0 0 0 0 0 0
-0 0 0 0 0 0 0 0 0 0 0 0 0 0 0 0 0 0 0 0 0 0 0 0 0 0 0 0 0 0 0 0 0 0 0 0 0 0 0 0 0 0 0 0
0 0 0 0 0 0 0 0 0 0 0 0 0 0 0 0 0 0 0 0 0 0 0 0 0 0 0 0 0 0 0 0 0 0 0 0 0 0 0 0 0 0 0 0
0 0 0 0 0 0 0 0 0 0 0 0 0 0 0 0 0 0 0 0 0 0 0 0 0 0 0 0 0 0 0 0 0 0 0 0 0 0 0 0 0 0 0 0
0 0 0 0 0 0 0 0 0 0 0 0 0 0 0 0 0 0 0 0 0 0 0 0 0 0 0 0 0 0 0 0 0 0 0 0 0 0 0 0 0 0 0 0
0 0 0 0 0 0 0 0 0 0 0 0 0 0 0 0 0 0 0 0 0 0 0 0 0 0 0 0 0 0 0 0 0 0 0 0 0 0 0 0 0 0 0 0
0 0 0 0 0 0 0 0 0 0 0 0 0 0 0 0 0 0 0 0 0 0 0 0 0 0 0 0 0 0 0 0 0 0 0 0 0 0 0 0 0 0 0 0
0 0 0 0 0 0 0 0 0 0 0 0 0 0 0 0 0 0 0 0 0 0 0 0 0 0 0 0 0 0 0 0 0 0 0 0 0 0 0 0 0 0 0 0
0 0 0 0 0 0 0 0 0 0 0 0 0 0 0 0 0 0 0 0 0 0 0 0 0 0 0 0 0 0 0 0 0 0 0 0 0 0 0 0 0 0 0 0
0 0 0 0 0 0 0 0 0 0 0 0 0 0 0 0 0 0 0 0 0 0 0 0 0 0 0 0 0 0 0 0 0 0 0 0 0 0 0 0 0 0 0 0
0 0 0 0 0 0 0 0 0 0 0 0 0 0 0 0 0 0 0 0 0 0 0 0 0 0 0 0 0 0 0 0 0 0 0 0 0 0 0 0 0 0 0 0
0 0 0 0 0 0 0 0 0 0 0 0 0 0 0 0 0 0 0 0 0 0 0 0 0 0 0 0 0 0 0 0 0 0 0 0 0 0 0 0 0 0 0 0
0 0 0 0 0 0 0 0 0 0 0 0 0 0 0 0 0 0 0 0 0 0 0 0 0 0 0 0 0 0 0 0 0 0 0 0 0 0 0 0 0 0 0 0
0 0 0 0 0 0 0 0 0 0 0 0 0 0 0 0 0 0 0 0 0 0 0 0 0 0 0 0 0 0 0 0 0 0 0 0 0 0 0 0 0 0 0 0
0 0 0 0 0 0 0 0 0 0 0 0 0 0 0 0 0 0 0 0 0 0 0 0 0 0 0 0 0 0 0 0 0 0 0 0 0 0 0 0 0 0 0 0
0 0 0 0 0 0 0 0 0 0 0 0 0 0 0 0 0 0 0 0 0 0 0 0 0 0 0 0 0 0 0 0 0 0 0 0 0 0 0 0 0 0 0 0
0 0 0 0 0 0 0 0 0 0 0 0 0 0 0 0 0 0 0 0 0 0 0 0 0 0 0 0 0 0 0 0 0 0 0 0 0 0 0 0 0 0 0 0
0 0 0 0 0 0 0 0 0 0 0 0 0 0 0 0 0 0 0 0 0 0 0 0 0 0 0 0 0 0 0 0 0 0 0 0 0 0 0 0 0 0 0 0
0 0 0 0 0 0 0 0 0 0 0 0 0 0 0 0 0 0 0 0 0 0 0 0 0 0 0 0 0 0 0 0 0 0 0 0 0 0 0 0 0 0 0 0
Wind_Speed_500mb
18 18 9 11 11 10 12 13 17 14 7 13 16 36 39 42 44 38 39 37 36 38 31 32 45 39 36 33 32 34 34 37 40 44 47 50 55 56 60 61 61 56 71 78
13 9 8 11 10 11 12 14 13 11 5 12 18 44 33 3 5 11 12 32 28 27 28 37 41 38 36 29 31 36 34 40 41 45 49 50 52 58 62 61 55 69 77 80
12 5 7 5 7 13 2 5 8 11 23 10 19 17 6 1 6 9 13 9 15 15 26 31 39 37 31 32 33 35 40 39 42 45 49 53 59 64 67 68 75 77 76 79
10 4 4 10 3 8 8 11 12 16 12 6 12 9 13 7 5 1 6 7 11 15 19 26 28 31 32 30 40 42 40 39 38 44 53 56 60 63 65 70 74 76 77 76
1 7 9 4 6 7 6 10 8 5 5 11 5 5 15 1 3 9 8 1 6 13 17 20 24 27 26 33 38 41 36 36 38 45 51 55 58 62 69 72 78 79 81 70
6 4 7 9 7 5 18 8 4 1 3 5 5 6 12 4 3 6 11 11 8 7 10 13 16 21 28 35 37 34 29 32 42 48 51 54 60 67 71 77 77 81 76 76
4 6 5 5 6 5 7 8 8 10 7 9 6 4 20 13 9 8 12 13 12 16 10 10 13 18 22 23 16 20 26 40 47 49 53 59 63 67 71 73 74 75 79 72
7 10 5 11 6 2 6 3 7 7 6 10 2 12 12 6 8 9 8 11 15 20 17 10 14 20 22 22 27 33 37 42 46 52 57 61 64 66 69 70 73 73 71 69
9 9 3 7 5 2 3 2 2 1 4 5 8 13 14 9 12 16 15 14 16 9 15 21 23 21 23 25 26 30 37 43 50 55 60 62 63 65 67 71 69 66 68 70
2 9 2 3 2 3 2 3 5 3 12 13 10 9 11 6 2 8 13 8 8 16 26 27 23 20 17 19 25 32 39 47 50 54 58 62 66 69 71 73 69 70 70 76
4 4 6 5 6 8 1 2 5 1 5 7 10 12 9 7 10 10 2 2 16 26 26 15 11 12 14 23 30 38 44 47 51 55 62 67 72 73 71 73 74 76 82 79
3 2 9 12 6 5 1 3 9 7 10 9 5 21 4 10 17 10 2 9 22 17 10 10 11 14 20 29 38 43 44 47 53 61 66 70 71 70 73 76 80 80 82 82
3 3 8 11 2 1 5 9 7 2 1 13 5 14 1 5 7 3 7 24 11 15 13 10 14 19 28 36 39 41 46 53 61 65 67 69 70 72 75 76 76 74 74 73
2 4 12 11 12 2 8 11 11 11 4 7 28 49 43 26 8 20 18 10 15 14 12 14 18 25 32 38 41 45 51 59 64 66 67 68 69 72 73 71 69 68 69 70
5 8 6 13 25 11 31 30 18 24 29 13 49 21 49 32 29 30 13 16 16 14 13 16 22 30 36 39 41 46 54 60 63 65 68 68 70 71 70 66 64 64 66 67
3 6 6 13 8 8 18 21 20 33 36 28 54 59 42 41 5 16 18 17 17 15 14 19 26 32 35 38 44 52 57 61 63 65 66 68 71 71 67 62 63 64 66 67
7 5 2 12 8 18 16 20 15 12 12 13 14 22 6 4 12 17 20 19 17 12 15 22 27 30 33 40 50 58 62 64 64 66 65 68 71 71 64 61 61 63 67 69
8 4 4 8 12 4 13 7 10 23 20 28 27 30 14 17 23 30 23 19 11 13 17 22 27 31 36 45 50 56 59 62 65 68 69 69 71 70 63 60 61 63 67 68
4 2 5 3 5 18 19 7 11 12 17 25 18 17 15 13 21 22 15 13 13 13 17 22 24 30 36 43 51 58 60 62 65 68 69 71 70 67 63 59 61 64 68 69
4 4 3 3 6 13 8 6 10 11 13 14 22 15 11 4 7 5 11 15 10 11 15 18 23 31 40 49 55 59 60 62 65 69 71 71 68 62 61 58 60 63 65 70
7 4 10 10 11 22 17 25 13 4 17 29 25 18 18 10 21 15 18 14 11 10 13 18 27 36 44 50 55 57 59 61 65 67 69 69 64 58 56 62 61 61 63 68
21 20 12 7 11 22 37 18 14 11 13 22 25 26 26 23 23 21 20 14 8 9 13 20 30 38 45 50 54 56 58 62 64 67 68 66 62 57 59 63 65 64 65 69
6 19 12 24 20 6 63 35 49 48 60 48 34 36 27 25 22 26 23 14 7 6 12 23 32 40 44 48 52 57 59 63 66 68 67 67 62 61 61 62 67 71 69 69
11 18 8 3 38 59 62 72 64 52 69 60 46 41 33 29 22 29 22 14 7 4 13 23 32 39 44 47 49 52 59 63 65 68 68 68 68 66 62 61 65 68 69 69
13 22 15 30 63 61 77 88 72 47 35 31 37 35 34 27 27 25 22 14 8 3 13 22 31 37 43 47 51 55 59 63 66 68 69 69 68 68 69 67 66 64 60 55
31 28 18 36 82 46 50 47 37 36 36 34 38 32 32 26 26 27 22 17 8 2 12 20 27 34 41 46 50 54 57 61 67 70 70 67 67 69 71 72 72 60 58 53
Wind_Direction_500mb
35 60 45 7 10 312 292 300 294 293 44 340 260 274 284 277 267 220 230 237 250 230 239 248 257 271 271 282 289 293 300 298 305 310 310 313 315 319 323 324 324 313 315 317
43 63 8 315 286 298 285 298 302 315 73 346 305 298 289 348 325 323 304 223 245 239 230 247 260 277 275 280 283 291 294 297 306 309 311 314 318 319 320 322 311 311 317 319
89 73 296 286 12 354 282 310 354 288 322 259 300 286 160 233 311 301 308 274 264 261 243 249 265 282 284 290 295 283 296 300 305 307 310 315 317 317 321 318 318 320 317 317
78 183 304 314 73 340 306 31 338 313 4 307 30 285 316 158 191 176 346 300 264 256 259 246 257 273 282 282 279 288 296 304 313 313 316 320 320 319 318 317 317 316 317 313
37 6 4 344 13 3 303 340 302 358 348 358 17 53 272 109 143 95 104 100 291 272 257 267 270 264 269 269 275 290 300 306 310 314 315 317 315 315 316 316 317 317 316 315
85 61 24 350 307 237 303 328 230 290 201 2 251 91 284 32 23 121 124 88 9 345 284 268 271 273 276 286 299 310 313 313 309 312 316 317 317 318 317 318 317 318 315 314
332 87 100 1 313 201 295 13 341 356 359 233 303 343 250 284 59 69 71 57 6 358 8 342 317 317 307 320 306 295 298 299 308 315 316 317 318 316 317 319 318 316 315 313
49 330 23 345 56 276 352 96 123 286 298 280 311 231 257 130 103 65 68 48 47 42 36 3 327 301 294 284 285 294 302 311 319 320 320 319 320 320 321 321 317 315 314 312
17 271 115 40 354 14 337 67 40 245 85 40 237 280 299 53 43 72 73 66 74 23 350 348 320 298 296 305 310 317 321 322 322 322 322 324 325 326 323 322 319 315 313 312
79 303 180 169 234 79 94 326 34 343 334 310 282 274 245 275 56 343 63 40 3 330 333 332 319 319 328 322 317 322 324 323 324 325 328 330 330 328 325 320 318 312 312 308
110 115 287 104 195 165 47 34 40 125 156 226 298 257 226 180 180 167 269 337 304 322 324 330 339 324 318 310 325 328 328 329 332 333 334 332 331 329 326 325 323 319 317 315
113 103 272 244 94 45 317 201 188 145 259 228 195 272 4 175 171 150 347 296 313 314 332 333 308 317 318 329 334 335 336 338 338 336 332 333 332 331 331 331 328 328 323 323
146 268 327 318 11 136 197 200 178 113 108 213 187 260 220 218 198 254 307 325 334 336 328 327 324 335 334 335 335 340 342 341 337 335 335 335 335 335 335 333 335 333 333 332
66 255 205 225 235 109 253 198 204 163 205 230 236 271 276 273 266 338 319 315 316 316 311 325 329 335 336 338 344 343 341 337 336 336 335 336 335 337 335 338 337 338 339 337
161 236 304 261 272 262 267 261 210 207 230 226 271 272 275 294 308 307 307 310 309 292 302 316 330 337 339 343 341 338 335 336 336 335 337 336 336 337 338 339 339 341 341 340
131 276 18 292 289 278 276 260 231 235 252 253 262 275 280 285 243 289 286 286 267 283 301 318 333 338 341 338 335 333 337 337 335 337 337 336 338 337 338 338 340 341 341 344
157 173 61 263 341 335 295 248 182 213 211 175 216 251 165 272 260 272 273 278 280 283 309 325 331 336 337 335 335 338 337 334 336 337 336 339 338 335 336 337 339 340 343 345
138 144 154 285 336 331 249 205 188 199 243 215 261 276 296 288 306 300 291 287 284 293 313 325 333 338 338 336 333 333 334 336 337 336 337 337 338 334 334 336 336 339 343 342
7 176 280 264 252 276 283 194 160 185 256 238 224 253 270 300 320 279 278 275 274 294 326 330 328 331 332 331 332 336 337 337 335 337 337 338 336 333 333 334 334 338 338 339
48 42 158 133 232 271 241 172 149 135 275 170 160 188 202 34 287 266 280 260 271 299 314 320 330 332 333 336 338 338 338 338 338 338 337 337 336 334 331 331 334 336 334 336
145 166 224 229 252 276 266 162 141 123 304 186 204 214 221 196 223 265 261 237 257 295 316 330 337 339 339 338 338 338 338 339 339 337 339 338 338 336 333 332 335 335 336 335
169 168 203 201 227 277 152 122 187 241 233 262 219 264 254 253 248 248 227 231 256 303 325 333 339 342 341 339 337 339 339 339 339 341 340 340 341 338 337 334 334 337 337 337
246 201 197 193 221 210 187 231 266 276 280 278 266 289 258 260 245 225 213 212 235 291 323 340 343 345 343 341 341 340 341 340 342 343 342 343 342 342 338 336 336 338 340 338
251 206 233 357 246 248 250 261 276 281 285 284 284 286 261 262 221 203 200 194 207 273 340 346 347 348 347 345 344 343 343 342 343 343 344 344 343 341 340 340 342 338 339 333
188 150 204 251 270 281 277 275 282 282 275 266 277 261 244 233 204 191 184 181 183 320 347 353 354 354 352 350 349 349 346 344 344 345 346 344 342 342 341 344 343 339 338 332
191 218 221 250 261 262 281 282 282 271 276 279 270 234 218 213 193 183 174 171 170 350 4 4 0 359 358 356 355 354 350 349 348 348 346 344 344 343 345 342 343 350 345 336
Wind_Speed_850mb
18 18 9 11 11 10 12 13 17 14 7 13 16 36 39 42 44 38 39 37 36 38 31 32 45 39 36 33 32 34 34 37 40 44 47 50 55 56 60 61 61 56 71 78
13 9 8 11 10 11 12 14 13 11 5 12 18 44 33 3 5 11 12 32 28 27 28 37 41 38 36 29 31 36 34 40 41 45 49 50 52 58 62 61 55 69 77 80
12 5 7 5 7 13 2 5 8 11 23 10 19 17 6 1 6 9 13 9 15 15 26 31 39 37 31 32 33 35 40 39 42 45 49 53 59 64 67 68 75 77 76 79
10 4 4 10 3 8 8 11 12 16 12 6 12 9 13 7 5 1 6 7 11 15 19 26 28 31 32 30 40 42 40 39 38 44 53 56 60 63 65 70 74 76 77 76
1 7 9 4 6 7 6 10 8 5 5 11 5 5 15 1 3 9 8 1 6 13 17 20 24 27 26 33 38 41 36 36 38 45 51 55 58 62 69 72 78 79 81 70
6 4 7 9 7 5 18 8 4 1 3 5 5 6 12 4 3 6 11 11 8 7 10 13 16 21 28 35 37 34 29 32 42 48 51 54 60 67 71 77 77 81 76 76
4 6 5 5 6 5 7 8 8 10 7 9 6 4 20 13 9 8 12 13 12 16 10 10 13 18 22 23 16 20 26 40 47 49 53 59 63 67 71 73 74 75 79 72
7 10 5 11 6 2 6 3 7 7 6 10 2 12 12 6 8 9 8 11 15 20 17 10 14 20 22 22 27 33 37 42 46 52 57 61 64 66 69 70 73 73 71 69
9 9 3 7 5 2 3 2 2 1 4 5 8 13 14 9 12 16 15 14 16 9 15 21 23 21 23 25 26 30 37 43 50 55 60 62 63 65 67 71 69 66 68 70
2 9 2 3 2 3 2 3 5 3 12 13 10 9 11 6 2 8 13 8 8 16 26 27 23 20 17 19 25 32 39 47 50 54 58 62 66 69 71 73 69 70 70 76
4 4 6 5 6 8 1 2 5 1 5 7 10 12 9 7 10 10 2 2 16 26 26 15 11 12 14 23 30 38 44 47 51 55 62 67 72 73 71 73 74 76 82 79
3 2 9 12 6 5 1 3 9 7 10 9 5 21 4 10 17 10 2 9 22 17 10 10 11 14 20 29 38 43 44 47 53 61 66 70 71 70 73 76 80 80 82 82
3 3 8 11 2 1 5 9 7 2 1 13 5 14 1 5 7 3 7 24 11 15 13 10 14 19 28 36 39 41 46 53 61 65 67 69 70 72 75 76 76 74 74 73
2 4 12 11 12 2 8 11 11 11 4 7 28 49 43 26 8 20 18 10 15 14 12 14 18 25 32 38 41 45 51 59 64 66 67 68 69 72 73 71 69 68 69 70
5 8 6 13 25 11 31 30 18 24 29 13 49 21 49 32 29 30 13 16 16 14 13 16 22 30 36 39 41 46 54 60 63 65 68 68 70 71 70 66 64 64 66 67
3 6 6 13 8 8 18 21 20 33 36 28 54 59 42 41 5 16 18 17 17 15 14 19 26 32 35 38 44 52 57 61 63 65 66 68 71 71 67 62 63 64 66 67
7 5 2 12 8 18 16 20 15 12 12 13 14 22 6 4 12 17 20 19 17 12 15 22 27 30 33 40 50 58 62 64 64 66 65 68 71 71 64 61 61 63 67 69
8 4 4 8 12 4 13 7 10 23 20 28 27 30 14 17 23 30 23 19 11 13 17 22 27 31 36 45 50 56 59 62 65 68 69 69 71 70 63 60 61 63 67 68
4 2 5 3 5 18 19 7 11 12 17 25 18 17 15 13 21 22 15 13 13 13 17 22 24 30 36 43 51 58 60 62 65 68 69 71 70 67 63 59 61 64 68 69
4 4 3 3 6 13 8 6 10 11 13 14 22 15 11 4 7 5 11 15 10 11 15 18 23 31 40 49 55 59 60 62 65 69 71 71 68 62 61 58 60 63 65 70
7 4 10 10 11 22 17 25 13 4 17 29 25 18 18 10 21 15 18 14 11 10 13 18 27 36 44 50 55 57 59 61 65 67 69 69 64 58 56 62 61 61 63 68
21 20 12 7 11 22 37 18 14 11 13 22 25 26 26 23 23 21 20 14 8 9 13 20 30 38 45 50 54 56 58 62 64 67 68 66 62 57 59 63 65 64 65 69
6 19 12 24 20 6 63 35 49 48 60 48 34 36 27 25 22 26 23 14 7 6 12 23 32 40 44 48 52 57 59 63 66 68 67 67 62 61 61 62 67 71 69 69
11 18 8 3 38 59 62 72 64 52 69 60 46 41 33 29 22 29 22 14 7 4 13 23 32 39 44 47 49 52 59 63 65 68 68 68 68 66 62 61 65 68 69 69
13 22 15 30 63 61 77 88 72 47 35 31 37 35 34 27 27 25 22 14 8 3 13 22 31 37 43 47 51 55 59 63 66 68 69 69 68 68 69 67 66 64 60 55
31 28 18 36 82 46 50 47 37 36 36 34 38 32 32 26 26 27 22 17 8 2 12 20 27 34 41 46 50 54 57 61 67 70 70 67 67 69 71 72 72 60 58 53
Wind_Direction_850mb
35 60 45 7 10 312 292 300 294 293 44 340 260 274 284 277 267 220 230 237 250 230 239 248 257 271 271 282 289 293 300 298 305 310 310 313 315 319 323 324 324 313 315 317
43 63 8 315 286 298 285 298 302 315 73 346 305 298 289 348 325 323 304 223 245 239 230 247 260 277 275 280 283 291 294 297 306 309 311 314 318 319 320 322 311 311 317 319
89 73 296 286 12 354 282 310 354 288 322 259 300 286 160 233 311 301 308 274 264 261 243 249 265 282 284 290 295 283 296 300 305 307 310 315 317 317 321 318 318 320 317 317
78 183 304 314 73 340 306 31 338 313 4 307 30 285 316 158 191 176 346 300 264 256 259 246 257 273 282 282 279 288 296 304 313 313 316 320 320 319 318 317 317 316 317 313
37 6 4 344 13 3 303 340 302 358 348 358 17 53 272 109 143 95 104 100 291 272 257 267 270 264 269 269 275 290 300 306 310 314 315 317 315 315 316 316 317 317 316 315
85 61 24 350 307 237 303 328 230 290 201 2 251 91 284 32 23 121 124 88 9 345 284 268 271 273 276 286 299 310 313 313 309 312 316 317 317 318 317 318 317 318 315 314
332 87 100 1 313 201 295 13 341 356 359 233 303 343 250 284 59 69 71 57 6 358 8 342 317 317 307 320 306 295 298 299 308 315 316 317 318 316 317 319 318 316 315 313
49 330 23 345 56 276 352 96 123 286 298 280 311 231 257 130 103 65 68 48 47 42 36 3 327 301 294 284 285 294 302 311 319 320 320 319 320 320 321 321 317 315 314 312
17 271 115 40 354 14 337 67 40 245 85 40 237 280 299 53 43 72 73 66 74 23 350 348 320 298 296 305 310 317 321 322 322 322 322 324 325 326 323 322 319 315 313 312
79 303 180 169 234 79 94 326 34 343 334 310 282 274 245 275 56 343 63 40 3 330 333 332 319 319 328 322 317 322 324 323 324 325 328 330 330 328 325 320 318 312 312 308
110 115 287 104 195 165 47 34 40 125 156 226 298 257 226 180 180 167 269 337 304 322 324 330 339 324 318 310 325 328 328 329 332 333 334 332 331 329 326 325 323 319 317 315
113 103 272 244 94 45 317 201 188 145 259 228 195 272 4 175 171 150 347 296 313 314 332 333 308 317 318 329 334 335 336 338 338 336 332 333 332 331 331 331 328 328 323 323
146 268 327 318 11 136 197 200 178 113 108 213 187 260 220 218 198 254 307 325 334 336 328 327 324 335 334 335 335 340 342 341 337 335 335 335 335 335 335 333 335 333 333 332
66 255 205 225 235 109 253 198 204 163 205 230 236 271 276 273 266 338 319 315 316 316 311 325 329 335 336 338 344 343 341 337 336 336 335 336 335 337 335 338 337 338 339 337
161 236 304 261 272 262 267 261 210 207 230 226 271 272 275 294 308 307 307 310 309 292 302 316 330 337 339 343 341 338 335 336 336 335 337 336 336 337 338 339 339 341 341 340
131 276 18 292 289 278 276 260 231 235 252 253 262 275 280 285 243 289 286 286 267 283 301 318 333 338 341 338 335 333 337 337 335 337 337 336 338 337 338 338 340 341 341 344
157 173 61 263 341 335 295 248 182 213 211 175 216 251 165 272 260 272 273 278 280 283 309 325 331 336 337 335 335 338 337 334 336 337 336 339 338 335 336 337 339 340 343 345
138 144 154 285 336 331 249 205 188 199 243 215 261 276 296 288 306 300 291 287 284 293 313 325 333 338 338 336 333 333 334 336 337 336 337 337 338 334 334 336 336 339 343 342
7 176 280 264 252 276 283 194 160 185 256 238 224 253 270 300 320 279 278 275 274 294 326 330 328 331 332 331 332 336 337 337 335 337 337 338 336 333 333 334 334 338 338 339
48 42 158 133 232 271 241 172 149 135 275 170 160 188 202 34 287 266 280 260 271 299 314 320 330 332 333 336 338 338 338 338 338 338 337 337 336 334 331 331 334 336 334 336
145 166 224 229 252 276 266 162 141 123 304 186 204 214 221 196 223 265 261 237 257 295 316 330 337 339 339 338 338 338 338 339 339 337 339 338 338 336 333 332 335 335 336 335
169 168 203 201 227 277 152 122 187 241 233 262 219 264 254 253 248 248 227 231 256 303 325 333 339 342 341 339 337 339 339 339 339 341 340 340 341 338 337 334 334 337 337 337
246 201 197 193 221 210 187 231 266 276 280 278 266 289 258 260 245 225 213 212 235 291 323 340 343 345 343 341 341 340 341 340 342 343 342 343 342 342 338 336 336 338 340 338
251 206 233 357 246 248 250 261 276 281 285 284 284 286 261 262 221 203 200 194 207 273 340 346 347 348 347 345 344 343 343 342 343 343 344 344 343 341 340 340 342 338 339 333
188 150 204 251 270 281 277 275 282 282 275 266 277 261 244 233 204 191 184 181 183 320 347 353 354 354 352 350 349 349 346 344 344 345 346 344 342 342 341 344 343 339 338 332
191 218 221 250 261 262 281 282 282 271 276 279 270 234 218 213 193 183 174 171 170 350 4 4 0 359 358 356 355 354 350 349 348 348 346 344 344 343 345 342 343 350 345 336